TimeMST,TemperatureF,Dew PointF,Humidity,Sea Level PressureIn,VisibilityMPH,Wind Direction,Wind SpeedMPH,Gust SpeedMPH,PrecipitationIn,Events,Conditions,WindDirDegrees,DateUTC
12:15 AM,32.0,32.0,100,30.45,0.2,Calm,Calm,-,N/A,,Overcast,0,2013-03-02 07:15:00
12:35 AM,32.0,32.0,100,30.45,0.2,Calm,Calm,-,N/A,,Overcast,0,2013-03-02 07:35:00
12:55 AM,32.0,32.0,100,30.45,0.8,Calm,Calm,-,N/A,,Overcast,0,2013-03-02 07:55:00
1:15 AM,30.2,30.2,100,30.45,3.0,SE,3.5,-,N/A,,Overcast,140,2013-03-02 08:15:00
1:35 AM,30.2,30.2,100,30.45,3.0,SE,3.5,-,N/A,,Overcast,130,2013-03-02 08:35:00
1:55 AM,30.2,30.2,100,30.45,2.5,East,3.5,-,N/A,,Overcast,100,2013-03-02 08:55:00
2:15 AM,28.4,28.4,100,30.44,3.0,SSE,3.5,-,N/A,,Overcast,160,2013-03-02 09:15:00
3:15 AM,30.2,30.2,100,30.42,0.2,ESE,3.5,-,N/A,,Overcast,110,2013-03-02 10:15:00
3:35 AM,30.2,30.2,100,30.41,0.2,Calm,Calm,-,N/A,,Overcast,0,2013-03-02 10:35:00
3:55 AM,30.2,30.2,100,30.40,0.2,SSE,3.5,-,N/A,,Overcast,150,2013-03-02 10:55:00
4:15 AM,28.4,28.4,100,30.41,0.2,Calm,Calm,-,N/A,,Overcast,0,2013-03-02 11:15:00
4:35 AM,30.2,30.2,100,30.40,3.0,Calm,Calm,-,N/A,,Clear,0,2013-03-02 11:35:00
4:55 AM,30.2,30.2,100,30.40,5.0,SE,4.6,-,N/A,,Clear,140,2013-03-02 11:55:00
5:15 AM,28.4,28.4,100,30.40,5.0,SE,3.5,-,N/A,,Clear,140,2013-03-02 12:15:00
5:35 AM,30.2,30.2,100,30.39,5.0,SE,3.5,-,N/A,,Clear,140,2013-03-02 12:35:00
5:55 AM,32.0,32.0,100,30.38,7.0,SSE,3.5,-,N/A,,Clear,160,2013-03-02 12:55:00
6:15 AM,32.0,32.0,100,30.36,9.0,SE,8.1,-,N/A,,Clear,130,2013-03-02 13:15:00
6:35 AM,32.0,32.0,100,30.37,10.0,SE,5.8,-,N/A,,Clear,140,2013-03-02 13:35:00
6:55 AM,32.0,32.0,100,30.36,9.0,SE,8.1,-,N/A,,Clear,130,2013-03-02 13:55:00
7:15 AM,32.0,32.0,100,30.36,6.0,SE,8.1,-,N/A,,Clear,140,2013-03-02 14:15:00
7:35 AM,32.0,32.0,100,30.35,7.0,SE,6.9,-,N/A,,Clear,140,2013-03-02 14:35:00
7:55 AM,32.0,32.0,100,30.34,7.0,SE,6.9,-,N/A,,Clear,130,2013-03-02 14:55:00
8:15 AM,32.0,32.0,100,30.34,6.0,SE,6.9,-,N/A,,Clear,140,2013-03-02 15:15:00
8:35 AM,35.6,35.6,100,30.35,7.0,SSE,4.6,-,N/A,,Clear,150,2013-03-02 15:35:00
8:55 AM,37.4,37.4,100,30.34,8.0,SE,4.6,-,N/A,,Clear,140,2013-03-02 15:55:00
9:15 AM,39.2,39.2,100,30.34,8.0,SSE,4.6,-,N/A,,Clear,150,2013-03-02 16:15:00
9:35 AM,42.8,42.8,100,30.34,10.0,SSE,9.2,-,N/A,,Clear,160,2013-03-02 16:35:00
9:55 AM,44.6,44.6,100,30.33,10.0,SSE,10.4,-,N/A,,Clear,160,2013-03-02 16:55:00
10:15 AM,46.4,44.6,93,30.32,10.0,SE,12.7,17.3,N/A,,Clear,140,2013-03-02 17:15:00
10:35 AM,48.2,42.8,82,30.31,10.0,SE,11.5,-,N/A,,Clear,140,2013-03-02 17:35:00
10:55 AM,50.0,42.8,76,30.30,10.0,SE,10.4,17.3,N/A,,Clear,140,2013-03-02 17:55:00
11:15 AM,50.0,41.0,71,30.29,10.0,SE,10.4,18.4,N/A,,Clear,130,2013-03-02 18:15:00
11:35 AM,51.8,41.0,67,30.28,10.0,SE,9.2,17.3,N/A,,Clear,140,2013-03-02 18:35:00
11:55 AM,53.6,41.0,62,30.26,10.0,SE,11.5,17.3,N/A,,Clear,130,2013-03-02 18:55:00
12:15 PM,55.4,41.0,58,30.26,10.0,South,10.4,-,N/A,,Clear,180,2013-03-02 19:15:00
12:35 PM,55.4,41.0,58,30.25,10.0,South,9.2,-,N/A,,Clear,170,2013-03-02 19:35:00
12:55 PM,55.4,41.0,58,30.23,10.0,South,12.7,-,N/A,,Clear,180,2013-03-02 19:55:00
1:15 PM,53.6,42.8,67,30.21,10.0,North,4.6,-,N/A,,Clear,10,2013-03-02 20:15:00
1:55 PM,57.2,39.2,51,30.17,10.0,SSW,9.2,-,N/A,,Clear,210,2013-03-02 20:55:00
2:15 PM,57.2,37.4,48,30.16,10.0,SE,10.4,-,N/A,,Clear,140,2013-03-02 21:15:00
2:35 PM,59.0,37.4,45,30.15,10.0,SSE,10.4,-,N/A,,Clear,160,2013-03-02 21:35:00
2:55 PM,59.0,35.6,42,30.15,10.0,South,10.4,-,N/A,,Clear,180,2013-03-02 21:55:00
3:15 PM,59.0,35.6,42,30.13,10.0,South,9.2,16.1,N/A,,Clear,170,2013-03-02 22:15:00
3:35 PM,59.0,35.6,42,30.13,10.0,South,10.4,16.1,N/A,,Clear,170,2013-03-02 22:35:00
4:15 PM,57.2,37.4,48,30.12,10.0,NNW,4.6,-,N/A,,Clear,330,2013-03-02 23:15:00
4:35 PM,55.4,41.0,58,30.11,10.0,NNW,8.1,-,N/A,,Clear,340,2013-03-02 23:35:00
4:55 PM,53.6,42.8,67,30.10,10.0,NNW,5.8,-,N/A,,Partly Cloudy,340,2013-03-02 23:55:00
5:15 PM,53.6,42.8,67,30.10,10.0,NNW,4.6,-,N/A,,Clear,340,2013-03-03 00:15:00
5:35 PM,53.6,44.6,72,30.09,10.0,NNW,4.6,-,N/A,,Clear,340,2013-03-03 00:35:00
5:55 PM,51.8,44.6,76,30.09,10.0,NNW,6.9,-,N/A,,Partly Cloudy,330,2013-03-03 00:55:00
6:15 PM,50.0,44.6,82,30.09,10.0,NNW,4.6,-,N/A,,Partly Cloudy,330,2013-03-03 01:15:00
6:35 PM,48.2,44.6,87,30.09,10.0,NW,8.1,-,N/A,,Scattered Clouds,320,2013-03-03 01:35:00
6:55 PM,48.2,44.6,87,30.09,10.0,NW,5.8,-,N/A,,Mostly Cloudy,310,2013-03-03 01:55:00
7:15 PM,48.2,44.6,87,30.09,10.0,NW,5.8,-,N/A,,Mostly Cloudy,310,2013-03-03 02:15:00
7:35 PM,48.2,44.6,87,30.08,10.0,WNW,3.5,-,N/A,,Mostly Cloudy,300,2013-03-03 02:35:00
7:55 PM,46.4,44.6,93,30.07,10.0,Calm,Calm,-,N/A,,Overcast,0,2013-03-03 02:55:00
8:15 PM,46.4,44.6,93,30.07,10.0,West,3.5,-,N/A,,Overcast,260,2013-03-03 03:15:00
8:35 PM,46.4,44.6,93,30.07,10.0,West,5.8,-,N/A,,Overcast,270,2013-03-03 03:35:00
8:55 PM,46.4,44.6,93,30.07,10.0,WSW,3.5,-,N/A,,Overcast,250,2013-03-03 03:55:00
9:15 PM,46.4,44.6,93,30.06,10.0,NW,5.8,-,N/A,,Overcast,310,2013-03-03 04:15:00
9:35 PM,44.6,44.6,100,30.06,10.0,WSW,3.5,-,N/A,,Overcast,250,2013-03-03 04:35:00
9:55 PM,44.6,44.6,100,30.06,10.0,Calm,Calm,-,N/A,,Overcast,0,2013-03-03 04:55:00
10:15 PM,44.6,44.6,100,30.04,9.0,East,8.1,-,N/A,,Overcast,100,2013-03-03 05:15:00
10:35 PM,44.6,44.6,100,30.05,9.0,WNW,4.6,17.3,N/A,,Mostly Cloudy,290,2013-03-03 05:35:00
10:55 PM,44.6,44.6,100,30.05,8.0,NNW,3.5,-,N/A,,Overcast,340,2013-03-03 05:55:00
11:15 PM,44.6,44.6,100,30.05,10.0,Calm,Calm,-,N/A,,Overcast,0,2013-03-03 06:15:00
11:35 PM,42.8,42.8,100,30.04,9.0,Calm,Calm,-,N/A,,Overcast,0,2013-03-03 06:35:00
11:55 PM,41.0,41.0,100,30.03,8.0,Calm,Calm,-,N/A,,Overcast,0,2013-03-03 06:55:00